Location: Monteux
(44.0348°N, 4.9972°E)
Time: 17:59:12
(UTC+00:00)

Cosmos 2228 Rocket - Pass Details

Date: 30 November 2020
Orbit: 618 x 652 km, 82.5° (Epoch: 17 January)

Event Time Altitude Azimuth Distance (km) Brightness Sun altitude
Rises 17:04:09 0° 148° (SSE) 2,952 6.4 -10.7°
Reaches altitude 10° 17:06:57 10° 130° (SE) 2,042 5.4 -11.2°
Maximum altitude 17:10:04 19° 86° (E) 1,547 4.5 -11.7°
Enters shadow 17:11:15 17° 66° (ENE) 1,626 4.5 -11.9°
